Location: Breckenridge
(39.4820°N, 106.0380°W)
Time: 05:33:18
(UTC-06:00)

Tiangong 2 - Visible Passes

Search period start: 20 March 2019 00:00
Search period end: 30 March 2019 00:00
Orbit: 379 x 390 km, 42.8° (Epoch: 19 March)

Date Brightness Start Highest point End Pass type
(mag) Time Alt. Az. Time Alt. Az. Time Alt. Az.
20 Mar 2.3 05:12:44 42° NE 05:12:44 42° NE 05:15:11 10° E visible
21 Mar 0.9 05:48:23 39° WNW 05:49:24 79° SSW 05:52:34 10° ESE visible
22 Mar 3.6 04:51:53 21° E 04:51:53 21° E 04:53:03 10° E visible
22 Mar 2.3 06:24:07 12° W 06:26:30 26° SSW 06:29:13 10° SSE visible
23 Mar 1.9 05:27:45 39° SSE 05:27:45 39° SSE 05:30:09 10° SE visible
24 Mar 3.0 06:03:48 15° SW 06:04:03 15° SW 06:05:57 10° S visible
29 Mar 2.3 20:50:33 10° SW 20:52:35 27° S 20:52:35 27° S visible
